| time (UTC) | temp C | wind direction | speed KPH | gust KPH | rain 1hr cm | rain 24hr cm | rain mn cm | humidity % | barometer mb |
| 20260831041803 | 25 | 145 | 0.0 | 0.0 | 0.00 | 0.00 | 0.00 | 56 | 1015.5 |
| 20260831040803 | 25 | 145 | 0.0 | 0.0 | 0.00 | 0.00 | 0.00 | 56 | 1015.5 |
| 20260831040302 | 25 | 145 | 0.0 | 0.0 | 0.00 | 0.00 | 0.00 | 56 | 1015.5 |
| 20260831035803 | 25 | 145 | 0.0 | 0.0 | 0.00 | 0.00 | 0.00 | 56 | 1015.5 |
| 20260831035306 | 25 | 145 | 0.0 | 0.0 | 0.00 | 0.00 | 0.00 | 56 | 1015.5 |
| 20260831034803 | 25 | 145 | 0.0 | 0.0 | 0.00 | 0.00 | 0.00 | 56 | 1015.5 |
| 20260831034303 | 25 | 145 | 0.0 | 0.0 | 0.00 | 0.00 | 0.00 | 56 | 1015.5 |
| 20260831033803 | 25 | 145 | 0.0 | 0.0 | 0.00 | 0.00 | 0.00 | 56 | 1015.5 |
| 20260831033303 | 25 | 145 | 0.0 | 0.0 | 0.00 | 0.00 | 0.00 | 56 | 1015.5 |
| 20260831032803 | 25 | 145 | 0.0 | 0.0 | 0.00 | 0.00 | 0.00 | 56 | 1015.5 |
| 20260831032306 | 25 | 145 | 0.0 | 0.0 | 0.00 | 0.00 | 0.00 | 56 | 1015.5 |
| 20260831031803 | 25 | 191 | 0.0 | 0.0 | 0.00 | 0.00 | 0.00 | 56 | 1015.5 |
| 20260831031302 | 25 | 122 | 0.0 | 0.0 | 0.00 | 0.00 | 0.00 | 55 | 1015.5 |
| 20260831030803 | 25 | 220 | 0.0 | 0.0 | 0.00 | 0.00 | 0.00 | 55 | 1015.7 |
| 20260831030303 | 25 | 145 | 0.0 | 0.0 | 0.00 | 0.00 | 0.00 | 55 | 1015.7 |
| 20260831025803 | 25 | 138 | 0.0 | 0.0 | 0.00 | 0.00 | 0.00 | 55 | 1015.7 |
| 20260831025306 | 25 | 302 | 0.0 | 0.0 | 0.00 | 0.00 | 0.00 | 55 | 1015.7 |
| 20260831024804 | 25 | 122 | 0.0 | 0.0 | 0.00 | 0.00 | 0.00 | 54 | 1015.8 |
| 20260831024303 | 25 | 145 | 0.0 | 4.8 | 0.00 | 0.00 | 0.00 | 54 | 1015.8 |
| 20260831023803 | 25 | 100 | 0.0 | 4.8 | 0.00 | 0.00 | 0.00 | 54 | 1015.8 |
| 20260831022803 | 25 | 108 | 0.0 | 0.0 | 0.00 | 0.00 | 0.00 | 53 | 1015.8 |
| 20260831022306 | 26 | 168 | 0.0 | 0.0 | 0.00 | 0.00 | 0.00 | 53 | 1015.8 |
| 20260831021803 | 26 | 258 | 0.0 | 0.0 | 0.00 | 0.00 | 0.00 | 53 | 1015.8 |
| 20260831021303 | 26 | 168 | 0.0 | 0.0 | 0.00 | 0.00 | 0.00 | 53 | 1015.8 |
| 20260831020803 | 26 | 183 | 0.0 | 3.2 | 0.00 | 0.00 | 0.00 | 53 | 1015.4 |
| 20260831020303 | 26 | 145 | 0.0 | 3.2 | 0.00 | 0.00 | 0.00 | 52 | 1015.4 |
| 20260831015803 | 26 | 158 | 0.0 | 0.0 | 0.00 | 0.00 | 0.00 | 52 | 1015.4 |
| 20260831015305 | 26 | 258 | 1.6 | 4.8 | 0.00 | 0.00 | 0.00 | 51 | 1015.4 |
| 20260831014803 | 26 | 227 | 1.6 | 8.0 | 0.00 | 0.00 | 0.00 | 51 | 1015.2 |
| 20260831014303 | 26 | 302 | 0.0 | 3.2 | 0.00 | 0.00 | 0.00 | 51 | 1015.2 |
| 20260831013804 | 26 | 78 | 0.0 | 3.2 | 0.00 | 0.00 | 0.00 | 50 | 1015.2 |
| 20260831013303 | 27 | 235 | 1.6 | 3.2 | 0.00 | 0.00 | 0.00 | 50 | 1015.2 |
| 20260831012804 | 27 | 119 | 1.6 | 4.8 | 0.00 | 0.00 | 0.00 | 50 | 1015.2 |
| 20260831011803 | 27 | 100 | 0.0 | 8.0 | 0.00 | 0.00 | 0.00 | 50 | 1015.2 |
| 20260831011303 | 27 | 168 | 0.0 | 8.0 | 0.00 | 0.00 | 0.00 | 49 | 1015.2 |
| 20260831010803 | 27 | 207 | 0.0 | 0.0 | 0.00 | 0.00 | 0.00 | 48 | 1014.9 |
| 20260831010303 | 27 | 258 | 0.0 | 4.8 | 0.00 | 0.00 | 0.00 | 48 | 1014.9 |
| 20260831005803 | 27 | 187 | 0.0 | 4.8 | 0.00 | 0.00 | 0.00 | 48 | 1014.9 |
| 20260831005306 | 27 | 145 | 1.6 | 0.0 | 0.00 | 0.00 | 0.00 | 47 | 1014.9 |
| 20260831004803 | 28 | 246 | 1.6 | 0.0 | 0.00 | 0.00 | 0.00 | 47 | 1014.7 |
| 20260831004303 | 28 | 55 | 1.6 | 9.7 | 0.00 | 0.00 | 0.00 | 47 | 1014.7 |
| 20260831003304 | 28 | 280 | 1.6 | 4.8 | 0.00 | 0.00 | 0.00 | 45 | 1014.7 |
| 20260831002306 | 28 | 212 | 1.6 | 4.8 | 0.00 | 0.00 | 0.00 | 44 | 1014.9 |
| 20260831001804 | 29 | 213 | 1.6 | 8.0 | 0.00 | 0.00 | 0.00 | 44 | 1014.9 |
| 20260831001304 | 29 | 258 | 1.6 | 3.2 | 0.00 | 0.00 | 0.00 | 43 | 1014.9 |
| 20260831000804 | 30 | 294 | 1.6 | 9.7 | 0.00 | 0.00 | 0.00 | 43 | 1014.9 |
| 20260830235803 | 30 | 176 | 1.6 | 12.9 | 0.00 | 0.00 | 0.00 | 42 | 1014.9 |
| 20260830234803 | 30 | 294 | 3.2 | 8.0 | 0.00 | 0.00 | 0.00 | 39 | 1014.9 |
| 20260830233803 | 31 | 119 | 3.2 | 9.7 | 0.00 | 0.00 | 0.00 | 35 | 1014.9 |
| 20260830233303 | 31 | 55 | 1.6 | 9.7 | 0.00 | 0.00 | 0.00 | 34 | 1015.5 |
| 20260830232803 | 31 | 353 | 3.2 | 11.3 | 0.00 | 0.00 | 0.00 | 32 | 1015.3 |
| 20260830232305 | 31 | 168 | 4.8 | 16.1 | 0.00 | 0.00 | 0.00 | 31 | 1015.3 |
| 20260830231803 | 32 | 130 | 4.8 | 9.7 | 0.00 | 0.00 | 0.00 | 31 | 1015.3 |
| 20260830231303 | 32 | 168 | 6.4 | 11.3 | 0.00 | 0.00 | 0.00 | 31 | 1015.3 |
| 20260830230803 | 33 | 136 | 4.8 | 9.7 | 0.00 | 0.00 | 0.00 | 28 | 1015.8 |
| 20260830230304 | 35 | 10 | 3.2 | 9.7 | 0.00 | 0.00 | 0.00 | 27 | 1015.8 |
| 20260830225305 | 35 | 145 | 3.2 | 3.2 | 0.00 | 0.00 | 0.00 | 27 | 1015.8 |
| 20260830224803 | 35 | 99 | 4.8 | 8.0 | 0.00 | 0.00 | 0.00 | 27 | 1015.6 |
| 20260830224303 | 35 | 145 | 3.2 | 9.7 | 0.00 | 0.00 | 0.00 | 27 | 1015.6 |
| 20260830223803 | 36 | 114 | 1.6 | 14.5 | 0.00 | 0.00 | 0.00 | 28 | 1015.6 |
| 20260830223303 | 35 | 145 | 3.2 | 4.8 | 0.00 | 0.00 | 0.00 | 29 | 1015.6 |
| 20260830222803 | 35 | 100 | 3.2 | 8.0 | 0.00 | 0.00 | 0.00 | 29 | 1015.6 |
| 20260830221304 | 35 | 78 | 1.6 | 11.3 | 0.00 | 0.00 | 0.00 | 30 | 1015.6 |
| 20260830220804 | 35 | 92 | 3.2 | 11.3 | 0.00 | 0.00 | 0.00 | 29 | 1015.6 |
| 20260830220304 | 34 | 100 | 3.2 | 9.7 | 0.00 | 0.00 | 0.00 | 29 | 1015.6 |
| 20260830215803 | 34 | 287 | 1.6 | 9.7 | 0.00 | 0.00 | 0.00 | 27 | 1015.6 |
| 20260830214303 | 35 | 258 | 3.2 | 11.3 | 0.00 | 0.00 | 0.00 | 26 | 1015.3 |
| 20260830213803 | 36 | 230 | 1.6 | 8.0 | 0.00 | 0.00 | 0.00 | 26 | 1015.3 |
| 20260830213304 | 36 | 280 | 1.6 | 3.2 | 0.00 | 0.00 | 0.00 | 25 | 1015.3 |
| 20260830211803 | 36 | 195 | 3.2 | 4.8 | 0.00 | 0.00 | 0.00 | 24 | 1015.6 |
| 20260830211303 | 36 | 280 | 3.2 | 9.7 | 0.00 | 0.00 | 0.00 | 24 | 1015.6 |
| 20260830210804 | 36 | 100 | 3.2 | 9.7 | 0.00 | 0.00 | 0.00 | 25 | 1015.6 |
| 20260830210303 | 36 | 190 | 1.6 | 8.0 | 0.00 | 0.00 | 0.00 | 24 | 1015.6 |
| 20260830205803 | 36 | 258 | 1.6 | 8.0 | 0.00 | 0.00 | 0.00 | 24 | 1015.6 |
| 20260830205305 | 36 | 145 | 3.2 | 8.0 | 0.00 | 0.00 | 0.00 | 25 | 1015.6 |
| 20260830204803 | 36 | 128 | 3.2 | 8.0 | 0.00 | 0.00 | 0.00 | 25 | 1016.0 |
| 20260830204303 | 36 | 168 | 3.2 | 8.0 | 0.00 | 0.00 | 0.00 | 25 | 1016.0 |
| 20260830203803 | 36 | 108 | 3.2 | 14.5 | 0.00 | 0.00 | 0.00 | 26 | 1016.0 |
| 20260830202803 | 36 | 87 | 1.6 | 8.0 | 0.00 | 0.00 | 0.00 | 27 | 1016.3 |
| 20260830202305 | 36 | 145 | 3.2 | 4.8 | 0.00 | 0.00 | 0.00 | 26 | 1016.3 |
| 20260830201803 | 36 | 198 | 3.2 | 20.9 | 0.00 | 0.00 | 0.00 | 26 | 1016.3 |
| 20260830201303 | 36 | 168 | 1.6 | 8.0 | 0.00 | 0.00 | 0.00 | 27 | 1016.3 |
| 20260830200804 | 37 | 189 | 3.2 | 9.7 | 0.00 | 0.00 | 0.00 | 26 | 1016.3 |
| 20260830200304 | 36 | 78 | 4.8 | 8.0 | 0.00 | 0.00 | 0.00 | 28 | 1016.3 |
| 20260830195803 | 36 | 32 | 3.2 | 11.3 | 0.00 | 0.00 | 0.00 | 28 | 1016.3 |
| 20260830195305 | 37 | 258 | 3.2 | 11.3 | 0.00 | 0.00 | 0.00 | 26 | 1015.8 |
| 20260830194804 | 36 | 106 | 3.2 | 4.8 | 0.00 | 0.00 | 0.00 | 27 | 1015.8 |
| 20260830194303 | 37 | 212 | 3.2 | 4.8 | 0.00 | 0.00 | 0.00 | 28 | 1015.8 |
| 20260830193803 | 37 | 122 | 3.2 | 11.3 | 0.00 | 0.00 | 0.00 | 29 | 1015.8 |
| 20260830193303 | 37 | 100 | 3.2 | 11.3 | 0.00 | 0.00 | 0.00 | 28 | 1015.8 |
| 20260830192803 | 37 | 228 | 1.6 | 11.3 | 0.00 | 0.00 | 0.00 | 30 | 1016.4 |
| 20260830192305 | 37 | 168 | 3.2 | 4.8 | 0.00 | 0.00 | 0.00 | 31 | 1016.4 |
| 20260830191803 | 37 | 162 | 3.2 | 11.3 | 0.00 | 0.00 | 0.00 | 30 | 1016.4 |
| 20260830191303 | 37 | 145 | 3.2 | 4.8 | 0.00 | 0.00 | 0.00 | 30 | 1016.4 |
| 20260830190803 | 36 | 47 | 3.2 | 9.7 | 0.00 | 0.00 | 0.00 | 31 | 1016.6 |
| 20260830190303 | 36 | 78 | 4.8 | 12.9 | 0.00 | 0.00 | 0.00 | 31 | 1016.6 |
| 20260830185804 | 36 | 168 | 3.2 | 11.3 | 0.00 | 0.00 | 0.00 | 31 | 1016.6 |
| 20260830185306 | 36 | 55 | 1.6 | 3.2 | 0.00 | 0.00 | 0.00 | 32 | 1016.6 |
| 20260830184803 | 36 | 243 | 1.6 | 9.7 | 0.00 | 0.00 | 0.00 | 34 | 1016.3 |
| 20260830184304 | 36 | 168 | 1.6 | 9.7 | 0.00 | 0.00 | 0.00 | 35 | 1016.3 |
| 20260830183303 | 35 | 78 | 1.6 | 4.8 | 0.00 | 0.00 | 0.00 | 35 | 1016.3 |
| 20260830182804 | 35 | 184 | 1.6 | 8.0 | 0.00 | 0.00 | 0.00 | 35 | 1017.1 |
| 20260830182306 | 35 | 212 | 3.2 | 8.0 | 0.00 | 0.00 | 0.00 | 39 | 1017.1 |
| 20260830181803 | 34 | 230 | 3.2 | 8.0 | 0.00 | 0.00 | 0.00 | 39 | 1017.1 |
| 20260830180803 | 33 | 252 | 8.0 | 19.3 | 0.00 | 0.00 | 0.00 | 38 | 1017.0 |
| 20260830180303 | 33 | 168 | 4.8 | 9.7 | 0.00 | 0.00 | 0.00 | 40 | 1017.0 |
| 20260830175803 | 33 | 105 | 4.8 | 16.1 | 0.00 | 0.00 | 0.00 | 36 | 1017.0 |
| 20260830175305 | 32 | 100 | 4.8 | 9.7 | 0.00 | 0.00 | 0.00 | 39 | 1017.0 |
| 20260830174804 | 32 | 86 | 4.8 | 14.5 | 0.00 | 0.00 | 0.00 | 37 | 1017.1 |
| 20260830174303 | 32 | 348 | 4.8 | 16.1 | 0.00 | 0.00 | 0.00 | 37 | 1017.1 |
| 20260830173303 | 32 | 212 | 4.8 | 8.0 | 0.00 | 0.00 | 0.00 | 40 | 1017.1 |
| 20260830172804 | 32 | 62 | 8.0 | 16.1 | 0.00 | 0.00 | 0.00 | 38 | 1017.5 |
| 20260830172306 | 32 | 348 | 8.0 | 14.5 | 0.00 | 0.00 | 0.00 | 39 | 1017.5 |
| 20260830171803 | 31 | 108 | 8.0 | 11.3 | 0.00 | 0.00 | 0.00 | 40 | 1017.5 |
| 20260830170803 | 31 | 115 | 8.0 | 12.9 | 0.00 | 0.00 | 0.00 | 41 | 1017.6 |
| 20260830165803 | 31 | 138 | 3.2 | 11.3 | 0.00 | 0.00 | 0.00 | 44 | 1017.6 |
| 20260830165306 | 31 | 145 | 3.2 | 8.0 | 0.00 | 0.00 | 0.00 | 44 | 1017.6 |
| 20260830164804 | 31 | 300 | 3.2 | 4.8 | 0.00 | 0.00 | 0.00 | 45 | 1017.8 |
| 20260830164304 | 30 | 55 | 4.8 | 8.0 | 0.00 | 0.00 | 0.00 | 45 | 1017.8 |
| 20260830163803 | 30 | 65 | 4.8 | 9.7 | 0.00 | 0.00 | 0.00 | 46 | 1017.8 |
| 20260830163304 | 30 | 100 | 4.8 | 8.0 | 0.00 | 0.00 | 0.00 | 45 | 1017.8 |
| 20260830162804 | 30 | 174 | 4.8 | 16.1 | 0.00 | 0.00 | 0.00 | 46 | 1017.5 |
| 20260830162306 | 30 | 32 | 4.8 | 19.3 | 0.00 | 0.00 | 0.00 | 46 | 1017.5 |
| 20260830161803 | 30 | 137 | 3.2 | 19.3 | 0.00 | 0.00 | 0.00 | 47 | 1017.5 |
| 20260830161304 | 30 | 122 | 3.2 | 14.5 | 0.00 | 0.00 | 0.00 | 48 | 1017.5 |
| 20260830160803 | 29 | 164 | 4.8 | 14.5 | 0.00 | 0.00 | 0.00 | 49 | 1017.3 |
| 20260830160303 | 29 | 78 | 3.2 | 4.8 | 0.00 | 0.00 | 0.00 | 49 | 1017.3 |
| 20260830155803 | 28 | 258 | 4.8 | 14.5 | 0.00 | 0.00 | 0.00 | 49 | 1017.3 |
| 20260830155306 | 28 | 122 | 6.4 | 19.3 | 0.00 | 0.00 | 0.00 | 49 | 1017.3 |
| 20260830154803 | 28 | 130 | 4.8 | 19.3 | 0.00 | 0.00 | 0.00 | 50 | 1017.3 |
| 20260830153303 | 28 | 55 | 8.0 | 9.7 | 0.00 | 0.00 | 0.00 | 52 | 1017.3 |
| 20260830152305 | 27 | 348 | 8.0 | 12.9 | 0.00 | 0.00 | 0.00 | 53 | 1017.5 |
| 20260830151804 | 27 | 137 | 4.8 | 12.9 | 0.00 | 0.00 | 0.00 | 53 | 1017.5 |
| 20260830151303 | 27 | 145 | 3.2 | 12.9 | 0.00 | 0.00 | 0.00 | 55 | 1017.5 |
| 20260830150804 | 27 | 183 | 3.2 | 11.3 | 0.00 | 0.00 | 0.00 | 56 | 1017.3 |
| 20260830150303 | 27 | 100 | 3.2 | 11.3 | 0.00 | 0.00 | 0.00 | 57 | 1017.3 |
| 20260830145804 | 26 | 114 | 3.2 | 8.0 | 0.00 | 0.00 | 0.00 | 58 | 1017.3 |
| 20260830145306 | 26 | 145 | 3.2 | 9.7 | 0.00 | 0.00 | 0.00 | 59 | 1017.3 |
| 20260830144803 | 26 | 332 | 4.8 | 9.7 | 0.00 | 0.00 | 0.00 | 60 | 1017.2 |
| 20260830144304 | 26 | 258 | 3.2 | 12.9 | 0.00 | 0.00 | 0.00 | 60 | 1017.1 |
| 20260830143803 | 26 | 122 | 3.2 | 9.7 | 0.00 | 0.00 | 0.00 | 60 | 1017.1 |
| 20260830143303 | 26 | 325 | 3.2 | 4.8 | 0.00 | 0.00 | 0.00 | 60 | 1017.1 |
| 20260830142306 | 25 | 122 | 1.6 | 3.2 | 0.00 | 0.00 | 0.00 | 64 | 1017.2 |
| 20260830141803 | 25 | 122 | 3.2 | 8.0 | 0.00 | 0.00 | 0.00 | 66 | 1017.2 |
| 20260830141303 | 25 | 32 | 3.2 | 4.8 | 0.00 | 0.00 | 0.00 | 67 | 1017.2 |
| 20260830135804 | 25 | 113 | 3.2 | 8.0 | 0.00 | 0.00 | 0.00 | 68 | 1017.0 |
| 20260830135306 | 24 | 145 | 3.2 | 8.0 | 0.00 | 0.00 | 0.00 | 70 | 1017.0 |
| 20260830134304 | 24 | 122 | 1.6 | 8.0 | 0.00 | 0.00 | 0.00 | 72 | 1017.3 |
| 20260830133803 | 23 | 49 | 1.6 | 3.2 | 0.00 | 0.00 | 0.00 | 73 | 1017.3 |
| 20260830133304 | 23 | 212 | 1.6 | 8.0 | 0.00 | 0.00 | 0.00 | 73 | 1017.3 |
| 20260830132804 | 23 | 310 | 0.0 | 0.0 | 0.00 | 0.00 | 0.00 | 75 | 1017.6 |
| 20260830131803 | 23 | 138 | 0.0 | 3.2 | 0.00 | 0.00 | 0.00 | 77 | 1017.6 |
| 20260830131304 | 22 | 145 | 0.0 | 0.0 | 0.00 | 0.00 | 0.00 | 78 | 1017.6 |
| 20260830130803 | 22 | 13 | 0.0 | 0.0 | 0.00 | 0.00 | 0.00 | 79 | 1017.5 |
| 20260830130304 | 22 | 107 | 0.0 | 0.0 | 0.00 | 0.00 | 0.00 | 81 | 1017.5 |
| 20260830125803 | 22 | 270 | 0.0 | 8.0 | 0.00 | 0.00 | 0.00 | 82 | 1017.5 |
| 20260830125306 | 22 | 78 | 1.6 | 0.0 | 0.00 | 0.00 | 0.00 | 82 | 1017.5 |
| 20260830124803 | 22 | 77 | 1.6 | 3.2 | 0.00 | 0.00 | 0.00 | 83 | 1017.2 |
| 20260830124303 | 21 | 43 | 1.6 | 8.0 | 0.00 | 0.00 | 0.00 | 83 | 1017.1 |
| 20260830123803 | 21 | 100 | 0.0 | 8.0 | 0.00 | 0.00 | 0.00 | 84 | 1017.1 |
| 20260830123304 | 21 | 87 | 0.0 | 0.0 | 0.00 | 0.00 | 0.00 | 84 | 1017.1 |
| 20260830122803 | 21 | 122 | 0.0 | 0.0 | 0.00 | 0.00 | 0.00 | 85 | 1017.3 |
| 20260830122306 | 21 | 155 | 0.0 | 0.0 | 0.00 | 0.00 | 0.00 | 85 | 1017.4 |
| 20260830121804 | 21 | 100 | 0.0 | 0.0 | 0.00 | 0.00 | 0.00 | 85 | 1017.4 |
| 20260830121304 | 21 | 121 | 0.0 | 0.0 | 0.00 | 0.00 | 0.00 | 85 | 1017.4 |
| 20260830120803 | 21 | 258 | 0.0 | 0.0 | 0.00 | 0.00 | 0.00 | 86 | 1017.2 |
| 20260830115804 | 21 | 101 | 0.0 | 0.0 | 0.00 | 0.00 | 0.00 | 86 | 1017.2 |
| 20260830114803 | 21 | 143 | 0.0 | 0.0 | 0.00 | 0.00 | 0.00 | 86 | 1017.4 |
| 20260830113803 | 20 | 101 | 0.0 | 0.0 | 0.00 | 0.00 | 0.00 | 86 | 1017.4 |
| 20260830113304 | 20 | 190 | 0.0 | 0.0 | 0.00 | 0.00 | 0.00 | 85 | 1017.4 |
| 20260830112804 | 20 | 99 | 0.0 | 0.0 | 0.00 | 0.00 | 0.00 | 85 | 1017.2 |
| 20260830112306 | 20 | 100 | 0.0 | 0.0 | 0.00 | 0.00 | 0.00 | 85 | 1017.2 |
| 20260830111803 | 20 | 101 | 0.0 | 0.0 | 0.00 | 0.00 | 0.00 | 85 | 1017.2 |
| 20260830111304 | 20 | 127 | 0.0 | 0.0 | 0.00 | 0.00 | 0.00 | 85 | 1017.2 |
| 20260830110804 | 20 | 349 | 0.0 | 0.0 | 0.00 | 0.00 | 0.00 | 85 | 1017.1 |
| 20260830110304 | 21 | 140 | 0.0 | 0.0 | 0.00 | 0.00 | 0.00 | 85 | 1017.1 |
| 20260830105305 | 21 | 117 | 0.0 | 0.0 | 0.00 | 0.00 | 0.00 | 85 | 1017.1 |
| 20260830104803 | 21 | 78 | 0.0 | 0.0 | 0.00 | 0.00 | 0.00 | 84 | 1016.9 |
| 20260830104303 | 21 | 185 | 0.0 | 0.0 | 0.00 | 0.00 | 0.00 | 84 | 1016.9 |
| 20260830103804 | 21 | 122 | 0.0 | 0.0 | 0.00 | 0.00 | 0.00 | 84 | 1016.9 |
| 20260830103303 | 21 | 108 | 0.0 | 0.0 | 0.00 | 0.00 | 0.00 | 84 | 1016.9 |
| 20260830102306 | 21 | 157 | 0.0 | 0.0 | 0.00 | 0.00 | 0.00 | 84 | 1016.9 |
| 20260830101304 | 21 | 64 | 0.0 | 0.0 | 0.00 | 0.00 | 0.00 | 84 | 1016.9 |
| 20260830100803 | 21 | 190 | 0.0 | 0.0 | 0.00 | 0.00 | 0.00 | 85 | 1016.8 |
| 20260830100304 | 20 | 145 | 0.0 | 0.0 | 0.00 | 0.00 | 0.00 | 84 | 1016.8 |
| 20260830095804 | 20 | 257 | 0.0 | 0.0 | 0.00 | 0.00 | 0.00 | 84 | 1016.8 |
| 20260830095306 | 20 | 251 | 0.0 | 0.0 | 0.00 | 0.00 | 0.00 | 84 | 1016.8 |
| 20260830094804 | 20 | 280 | 0.0 | 0.0 | 0.00 | 0.00 | 0.00 | 84 | 1016.7 |
| 20260830094304 | 20 | 249 | 0.0 | 0.0 | 0.00 | 0.00 | 0.00 | 84 | 1016.7 |
| 20260830093803 | 21 | 122 | 0.0 | 0.0 | 0.00 | 0.00 | 0.00 | 84 | 1016.7 |
| 20260830093303 | 21 | 270 | 0.0 | 0.0 | 0.00 | 0.00 | 0.00 | 84 | 1016.7 |
| 20260830092804 | 21 | 300 | 0.0 | 0.0 | 0.00 | 0.00 | 0.00 | 85 | 1016.9 |
| 20260830092305 | 21 | 112 | 0.0 | 0.0 | 0.00 | 0.00 | 0.00 | 85 | 1016.9 |
| 20260830091804 | 21 | 233 | 0.0 | 0.0 | 0.00 | 0.00 | 0.00 | 84 | 1016.9 |
| 20260830091303 | 21 | 140 | 0.0 | 0.0 | 0.00 | 0.00 | 0.00 | 84 | 1016.9 |
| 20260830090804 | 21 | 235 | 0.0 | 0.0 | 0.00 | 0.00 | 0.00 | 84 | 1017.2 |
| 20260830090303 | 21 | 118 | 0.0 | 0.0 | 0.00 | 0.00 | 0.00 | 85 | 1017.2 |
| 20260830085803 | 21 | 214 | 0.0 | 0.0 | 0.00 | 0.00 | 0.00 | 85 | 1017.2 |
| 20260830084304 | 21 | 163 | 0.0 | 0.0 | 0.00 | 0.00 | 0.00 | 86 | 1017.2 |
| 20260830083804 | 21 | 303 | 0.0 | 0.0 | 0.00 | 0.00 | 0.00 | 86 | 1017.2 |
| 20260830083303 | 21 | 161 | 0.0 | 0.0 | 0.00 | 0.00 | 0.00 | 86 | 1017.2 |
| 20260830082306 | 21 | 108 | 0.0 | 0.0 | 0.00 | 0.00 | 0.00 | 85 | 1017.3 |
| 20260830081804 | 21 | 100 | 1.6 | 0.0 | 0.00 | 0.00 | 0.00 | 85 | 1017.3 |
| 20260830081304 | 21 | 131 | 3.2 | 3.2 | 0.00 | 0.00 | 0.00 | 85 | 1017.3 |
| 20260830080804 | 21 | 121 | 3.2 | 4.8 | 0.00 | 0.00 | 0.00 | 85 | 1017.2 |
| 20260830080303 | 21 | 100 | 1.6 | 8.0 | 0.00 | 0.00 | 0.00 | 85 | 1017.2 |
| 20260830075804 | 21 | 120 | 0.0 | 8.0 | 0.00 | 0.00 | 0.00 | 84 | 1017.2 |
| 20260830075306 | 21 | 100 | 0.0 | 4.8 | 0.00 | 0.00 | 0.00 | 84 | 1017.2 |
| 20260830074804 | 21 | 101 | 0.0 | 0.0 | 0.00 | 0.00 | 0.00 | 83 | 1017.3 |
| 20260830074304 | 21 | 25 | 1.6 | 0.0 | 0.00 | 0.00 | 0.00 | 83 | 1017.3 |
| 20260830073803 | 21 | 144 | 1.6 | 3.2 | 0.00 | 0.00 | 0.00 | 83 | 1017.3 |
| 20260830073304 | 21 | 100 | 1.6 | 3.2 | 0.00 | 0.00 | 0.00 | 83 | 1017.3 |
| 20260830072803 | 21 | 100 | 0.0 | 0.0 | 0.00 | 0.00 | 0.00 | 83 | 1017.4 |
| 20260830072306 | 21 | 136 | 0.0 | 0.0 | 0.00 | 0.00 | 0.00 | 82 | 1017.4 |
| 20260830071804 | 21 | 114 | 0.0 | 0.0 | 0.00 | 0.00 | 0.00 | 82 | 1017.4 |
| 20260830070304 | 22 | 100 | 0.0 | 3.2 | 0.00 | 0.00 | 0.00 | 79 | 1017.2 |
| 20260830065804 | 22 | 100 | 0.0 | 3.2 | 0.00 | 0.00 | 0.00 | 79 | 1017.2 |
| 20260830065306 | 22 | 145 | 0.0 | 0.0 | 0.00 | 0.00 | 0.00 | 79 | 1017.2 |
| 20260830064804 | 22 | 212 | 0.0 | 0.0 | 0.00 | 0.00 | 0.00 | 79 | 1017.3 |
| 20260830064304 | 22 | 183 | 0.0 | 0.0 | 0.00 | 0.00 | 0.00 | 78 | 1017.3 |
| 20260830063804 | 22 | 278 | 0.0 | 0.0 | 0.00 | 0.00 | 0.00 | 78 | 1017.3 |
| 20260830063303 | 22 | 7 | 0.0 | 0.0 | 0.00 | 0.00 | 0.00 | 77 | 1017.3 |
| 20260830062804 | 22 | 144 | 0.0 | 0.0 | 0.00 | 0.00 | 0.00 | 76 | 1017.4 |
| 20260830062305 | 22 | 132 | 0.0 | 3.2 | 0.00 | 0.00 | 0.00 | 76 | 1017.4 |
| 20260830061804 | 22 | 122 | 0.0 | 0.0 | 0.00 | 0.00 | 0.00 | 76 | 1017.4 |
| 20260830061303 | 22 | 145 | 0.0 | 0.0 | 0.00 | 0.00 | 0.00 | 75 | 1017.4 |
| 20260830060804 | 22 | 168 | 0.0 | 0.0 | 0.00 | 0.00 | 0.00 | 75 | 1017.3 |
| 20260830060311 | 22 | 79 | 0.0 | 0.0 | 0.00 | 0.00 | 0.00 | 75 | 1017.3 |
| 20260830055812 | 22 | 170 | 0.0 | 0.0 | 0.00 | 0.00 | 0.00 | 74 | 1017.3 |
| 20260830055308 | 22 | 200 | 0.0 | 0.0 | 0.00 | 0.00 | 0.00 | 74 | 1017.3 |
| 20260830054809 | 23 | 99 | 0.0 | 0.0 | 0.00 | 0.00 | 0.00 | 74 | 1017.6 |
| 20260830053804 | 23 | 120 | 0.0 | 0.0 | 0.00 | 0.00 | 0.00 | 74 | 1017.6 |
| 20260830053308 | 23 | 143 | 0.0 | 0.0 | 0.00 | 0.00 | 0.00 | 74 | 1017.6 |
| 20260830050821 | 23 | 33 | 0.0 | 0.0 | 0.00 | 0.00 | 0.00 | 71 | 1017.6 |
| 20260830050302 | 23 | 249 | 0.0 | 0.0 | 0.00 | 0.00 | 0.00 | 71 | 1017.6 |
| 20260830045802 | 23 | 302 | 0.0 | 0.0 | 0.00 | 0.00 | 0.00 | 71 | 1017.6 |
| 20260830044809 | 23 | 235 | 0.0 | 0.0 | 0.00 | 0.00 | 0.00 | 70 | 1017.5 |
| 20260830044311 | 23 | 158 | 0.0 | 0.0 | 0.00 | 0.00 | 0.00 | 70 | 1017.5 |
| 20260830043308 | 23 | 246 | 0.0 | 0.0 | 0.00 | 0.00 | 0.00 | 70 | 1017.5 |
| 20260830042802 | 23 | 174 | 0.0 | 0.0 | 0.00 | 0.00 | 0.00 | 69 | 1017.7 |
| 20260830042309 | 24 | 145 | 0.0 | 0.0 | 0.00 | 0.00 | 0.00 | 69 | 1017.7 |